Retour au catalogue

STARLINK-36275

ActifCommunicationsVLEO
NORAD 68702·PAYLOAD·🇺🇸 United States

Lancé Apr 14, 2026 depuis Cape Canaveral Space Force Station

Loading…

Prochains Passages (prochaines 24 heures)

TLE

FraisSource: CelesTrak SupGP

Époque: Sep 15, 2026, 04:31 UTC

1 68702C 26081D   26258.18868056 -.00058671  00000+0 -17333-2 0  2580
2 68702  53.1571 230.8362 0001273  92.3232 108.5009 15.34421891    17

Suivez STARLINK-36275 en temps réel avec AllMySat

Download on the App Store